Location: Newark
(41.8083°N, 72.2500°W)
Time: 15:13:13
(UTC+00:00)

deb Explorer IX - Pass Details

Date: 07 December 2021
Orbit: 544 x 1082 km, 38.8° (Epoch: 19 January)

Event Time Altitude Azimuth Distance (km) Brightness Sun altitude
Rises 19:12:17 0° 267° (W) 2,757 ? 16.6°
Reaches altitude 10° 19:15:53 10° 236° (SW) 1,811 ? 16.2°
Maximum altitude 19:17:27 12° 213° (SSW) 1,681 ? 16.0°
Drops below altitude 10° 19:18:59 10° 191° (S) 1,796 ? 15.8°
Sets 19:22:32 0° 158° (SSE) 2,703 ? 15.4°
